CW2882 Weather Reports


Display with metric or nautical units.
time (UTC)temp
F
wind
direction
speed
MPH
gust
MPH
rain 1hr
in
rain 24hr
in
rain mn
in
humidity
%
barometer
mb
20260506173015 51 238 1.0 5.0 0.00 0.00 0.00 93 1020.2
20260506171516 51 228 2.0 5.0 0.00 0.00 0.00 93 1020.2
20260506170014 50 238 0.0 4.0 0.00 0.00 0.00 94 1020.0
20260506164514 50 243 1.0 4.0 0.00 0.00 0.00 93 1020.2
20260506163016 50 172 1.0 4.0 0.00 0.00 0.00 93 1020.0
20260506161513 51 174 0.0 3.0 0.00 0.00 0.00 93 1020.0
20260506160013 51 18 0.0 3.0 0.00 0.00 0.00 92 1020.1
20260506154510 51 166 0.0 3.0 0.00 0.00 0.00 92 1020.2
20260506153009 51 180 0.0 5.0 0.00 0.00 0.00 92 1020.1
20260506151509 51 222 2.0 6.0 0.00 0.00 0.00 91 1019.9
20260506150014 51 226 2.0 5.0 0.00 0.00 0.00 91 1019.6
20260506144505 51 191 2.0 6.0 0.00 0.00 0.00 91 1019.5
20260506143003 51 235 2.0 7.0 0.00 0.00 0.00 91 1019.3
20260506141502 51 219 0.0 5.0 0.00 0.00 0.00 91 1019.4
20260506140003 50 115 1.0 5.0 0.00 0.00 0.00 92 1019.3
20260506134600 50 245 2.0 8.0 0.00 0.00 0.00 92 1019.2
20260506133124 50 211 1.0 7.0 0.00 0.00 0.00 92 1019.0
20260506131558 50 276 0.0 3.0 0.00 0.00 0.00 91 1018.8
20260506130120 51 181 0.0 4.0 0.00 0.00 0.00 91 1018.9
20260506124555 51 111 1.0 8.0 0.00 0.00 0.00 91 1018.7
20260506123056 50 216 1.0 8.0 0.00 0.00 0.00 92 1019.0
20260506121552 50 208 0.0 5.0 0.00 0.00 0.00 92 1018.9
20260506120051 50 170 0.0 4.0 0.00 0.00 0.00 92 1018.5
20260506114550 50 119 2.0 5.0 0.00 0.00 0.00 92 1018.4
20260506113047 50 126 2.0 5.0 0.00 0.00 0.00 93 1018.4
20260506111546 50 210 0.0 3.0 0.00 0.00 0.00 93 1018.5
20260506110046 50 214 1.0 4.0 0.00 0.00 0.00 94 1018.2
20260506104606 50 150 1.0 5.0 0.00 0.00 0.00 94 1018.1
20260506103042 50 157 1.0 6.0 0.00 0.00 0.00 94 1017.9
20260506101541 50 143 2.0 6.0 0.00 0.00 0.00 95 1017.7
20260506100042 50 174 1.0 5.0 0.00 0.00 0.00 95 1017.7
20260506094538 50 215 0.0 3.0 0.00 0.00 0.00 95 1017.6
20260506093035 49 229 1.0 6.0 0.00 0.00 0.00 95 1017.6
20260506091534 49 146 1.0 6.0 0.00 0.00 0.00 95 1017.6
20260506090041 49 147 1.0 6.0 0.00 0.00 0.00 95 1017.5
20260506084536 49 174 1.0 4.0 0.00 0.00 0.00 95 1017.5
20260506083057 49 169 1.0 5.0 0.00 0.00 0.00 95 1017.5
20260506081528 49 200 1.0 4.0 0.00 0.00 0.00 95 1017.5
20260506073024 49 101 1.0 4.0 0.00 0.00 0.00 94 1017.0
20260506071525 49 135 1.0 6.0 0.00 0.00 0.00 94 1017.0
20260506061518 50 155 0.0 4.0 0.00 0.00 0.00 94 1016.7
20260506044515 51 168 0.0 5.0 0.00 0.00 0.00 92 1016.0
20260506043017 51 171 1.0 6.0 0.00 0.00 0.00 92 1015.9
20260506041512 51 113 0.0 5.0 0.00 0.00 0.00 91 1015.8
20260506040018 52 207 0.0 4.0 0.00 0.00 0.00 90 1015.6
20260506034513 52 271 0.0 5.0 0.00 0.00 0.00 89 1015.3
20260506033015 53 99 1.0 7.0 0.00 0.00 0.00 88 1015.3
20260506031511 54 76 0.0 5.0 0.00 0.00 0.00 86 1015.2
20260506030011 55 234 1.0 5.0 0.00 0.00 0.00 85 1015.2
20260506024524 56 231 1.0 7.0 0.00 0.00 0.00 83 1015.3
20260506023011 56 151 2.0 7.0 0.00 0.00 0.00 82 1015.2
20260506021509 57 143 2.0 6.0 0.00 0.00 0.00 82 1015.4
20260506020009 58 207 0.0 4.0 0.00 0.00 0.00 82 1015.3
20260506014520 58 194 1.0 6.0 0.00 0.00 0.00 80 1015.3
20260506013008 59 223 1.0 6.0 0.00 0.00 0.00 79 1015.4
20260506011518 60 230 1.0 5.0 0.00 0.00 0.00 77 1015.5
20260506010011 60 148 2.0 5.0 0.00 0.00 0.00 77 1015.4
20260506004507 60 144 1.0 6.0 0.00 0.00 0.00 78 1015.4
20260506003005 60 291 1.0 5.0 0.00 0.00 0.00 79 1015.5
20260506001504 60 195 0.0 7.0 0.00 0.00 0.00 78 1015.5
20260506000004 61 115 1.0 5.0 0.00 0.00 0.00 79 1015.6
20260505234505 60 179 1.0 5.0 0.00 0.00 0.00 81 1015.7
20260505233001 58 223 3.0 7.0 0.00 0.00 0.00 81 1016.0
20260505231559 60 94 1.0 5.0 0.00 0.00 0.00 80 1016.0
20260505230059 59 234 2.0 6.0 0.00 0.00 0.00 81 1016.2
20260505224559 59 116 1.0 4.0 0.00 0.00 0.00 81 1016.2
20260505223111 59 211 2.0 7.0 0.00 0.00 0.00 81 1016.4
20260505221603 60 153 1.0 6.0 0.00 0.00 0.00 82 1016.5
20260505220054 58 199 1.0 6.0 0.00 0.00 0.00 85 1016.5
20260505214558 58 141 1.0 5.0 0.00 0.00 0.00 84 1016.7
20260505213053 57 107 1.0 4.0 0.00 0.00 0.00 86 1016.7
20260505211555 57 203 0.0 5.0 0.00 0.00 0.00 89 1016.7
20260505210045 57 206 1.0 4.0 0.00 0.00 0.00 90 1016.8
20260505204543 56 154 1.0 4.0 0.00 0.00 0.00 93 1016.9
20260505203051 55 200 1.0 7.0 0.00 0.00 0.00 95 1016.8
20260505201539 55 248 1.0 6.0 0.00 0.00 0.00 95 1016.8
20260505200039 55 114 1.0 5.0 0.00 0.00 0.00 95 1016.7
20260505194542 54 217 2.0 5.0 0.00 0.00 0.00 95 1016.8
20260505193035 54 238 1.0 5.0 0.00 0.00 0.00 95 1016.8
20260505191542 55 193 0.0 4.0 0.00 0.00 0.00 96 1016.7
20260505190034 54 214 0.0 3.0 0.00 0.00 0.00 96 1016.8
20260505184543 54 98 0.0 3.0 0.00 0.00 0.00 97 1016.7
20260505183038 53 218 0.0 3.0 0.00 0.00 0.00 96 1016.6
20260505181528 53 238 0.0 4.0 0.00 0.00 0.00 96 1016.6
20260505180027 53 235 0.0 2.0 0.00 0.00 0.00 97 1016.5
20260505174524 53 242 0.0 2.0 0.00 0.00 0.00 96 1016.5